www.pogodaiklimat.ru

Погода и климат >> Архив погоды >> Россия >> Забайкальский край >> Чара


АРХИВ ПОГОДЫ в Чаре

Время (UTC), дата Ветер
(напр.,м/с)
 
Видим.   Явления Облачность Т
(С)
Тd
(С)
f
(%)
Тe
(С)
Тes
(С)
Комфортность P
(гПа)
Po
(гПа)
Тmin
(С)
Tmax
(С)
R
(мм)
R24
(мм)
S
(см)
09 12.08 штиль 0 1700 м мгла {туман} ?/? +23.8 +14.2 55 +26 +26 жарко 997.0 919.8
12 12.08 В 2 2100 м мгла {туман} ?/? +22.0 +10.4 48 +24 +24 комфорт 998.6 920.7 +27.6
15 12.08 З 1 4000 м слаб. ливневой дождь {туман} 10/10 1500 м
[Cb cap]
+17.4 +13.2 76 +18 +18 1001.0 921.8
18 12.08 штиль 0 4000 м слаб. ливневой дождь 10/10 1500 м
[Cb cap]
+15.1 +13.4 90 +15 +15 1001.5 921.7
21 12.08 СВ 2 4400 м слаб. ливневой дождь 10/8 1500 м
[Cb cap As op]
+13.8 +12.6 92 +13 +13 1000.5 920.4
00 13.08 ЮЗ 3
{12}
50 км в посл. час ливневой дождь 9/8 600 м
[Cb cap Ci sp]
+11.7 +9.9 89 +10 +11 1001.9 921.1 +10.6 14
03 13.08 ЮЗ 4 20 км слаб. ливневой дождь 10/9 600 м
[Cb cap Ci sp]
+12.7 +8.9 78 +11 +11 1002.9 922.2
06 13.08 Ю 2 20 км слаб. ливневой дождь 10/9 600 м
[Cb cap Ci sp]
+14.9 +8.5 66 +15 +16 1002.8 922.8
09 13.08 С 1 50 км {ливн. осадки} 10/9 1000 м
[Cb cap Ci fib]
+15.4 +10.7 74 +16 +16 1003.1 923.2
12 13.08 В 1 50 км {ливн. осадки} 10/9 1000 м
[Cb cap Ci fib]
+13.0 +7.7 70 +13 +13 1005.3 924.5 +17.1 0.5
15 13.08 ЮЗ 1 50 км 9/8 1000 м
[Cb cap Ac trans Ci fib]
+10.7 +7.3 79 +10 +10 1006.2 924.7
18 13.08 штиль 0 50 км 8/8 1500 м
[Sc Ci fib]
+6.9 +5.7 92 +6 +6 1007.8 925.1
21 13.08 Ю 1 50 км 6/4 1500 м
[Sc Ci fib]
+5.8 +4.8 93 +5 +5 1008.3 925.2
00 14.08 ЮЗ 1 50 км 9/3 1500 м
[Cb cap Ac lent Ci fib]
+11.7 +7.2 74 +12 +14 1006.5 925.2 +4.8
03 14.08 З 1 50 км 9/8 1500 м
[Cb cap Ci fib]
+16.6 +5.4 47 +18 +20 1004.4 924.6
06 14.08 ЮЗ 2 50 км 8/8 1500 м
[Cb cap]
+19.3 +4.8 38 +20 +22 1003.7 924.6
09 14.08 СЗ 1 50 км 9/4 1500 м
[Cb cap Ac trans Ci fib]
+18.6 +5.4 42 +20 +21 1003.8 924.5
12 14.08 СВ 4 50 км 8/8 1500 м
[Cb cap]
+14.9 +4.3 49 +14 +14 1006.0 925.5 +19.8
15 14.08 СВ 2 50 км 8/6 1500 м
[Cb cap Ci fib]
+12.3 +6.8 69 +11 +11 1007.6 926.4
18 14.08 Ю 1 50 км 6/4 1500 м
[Cb cap Ci fib]
+7.3 +5.3 87 +6 +6 1009.8 927.0
21 14.08 З 1 50 км 10/8 1500 м
[Cb cap Ac trans Ci fib]
+5.3 +4.1 92 +4 +4 1011.1 927.6
00 15.08 штиль 0 50 км 9/8 1500 м
[Cb cap Ci fib]
+10.4 +7.6 83 +10 +11 1009.9 928.0 +3.8
03 15.08 З 1 50 км 10/10 1500 м
[Cb cap]
+16.8 +6.3 50 +18 +18 1007.6 927.6
06 15.08 СВ 2 50 км 10/10 1500 м
[Cb cap]
+19.2 +5.3 40 +20 +20 1006.2 926.9
09 15.08 С 3 50 км 10/5 1500 м
[Cb cap Cs]
+18.2 +5.5 43 +18 +19 1006.8 927.2
12 15.08 СЗ 2 50 км 6/4 1500 м
[Cb cap Ci fib]
+13.0 +7.6 70 +12 +12 1009.5 928.3 +19.8
15 15.08 ЮЗ 1 50 км 6/6 1500 м
[Cb cap]
+7.9 +6.4 90 +7 +7 1011.1 928.3
18 15.08 З 1 50 км 4/3 1500 м
[Sc Ac lent]
+6.0 +4.8 92 +5 +5 1012.4 929.0
21 15.08 З 1 50 км 8/8 1500 м
[Cb cap]
+8.1 +6.8 91 +7 +7 1012.1 929.4
00 16.08 ЮВ 1 50 км 9/9 1500 м
[Cb cap]
+11.2 +8.7 85 +11 +11 1011.0 929.3 +4.8
03 16.08 В 2 50 км 10/10 1000 м
[Cb cap]
+14.6 +9.0 69 +14 +14 1010.3 929.5
06 16.08 СВ 2 50 км 9/8 1000 м
[Cb calv Ac trans Ci fib]
+17.4 +9.0 58 +18 +19 1008.6 928.7
09 16.08 СВ 2 50 км 9/8 1000 м
[Cb cap Ac trans Ci fib]
+19.0 +9.1 53 +20 +21 1007.8 928.4
12 16.08 СВ 3 50 км в посл. час ливневой дождь 10/10 1000 м
[Cb cap]
+16.1 +8.4 60 +16 +16 1009.7 929.4 +19.8 0.1
15 16.08 штиль 0 50 км 10/6 1500 м
[Sc Ac trans Ci fib]
+11.3 +8.4 82 +11 +11 1011.7 929.9
18 16.08 Ю 1 50 км 8/3 1500 м
[Sc Ac trans Ci fib]
+9.1 +7.6 90 +8 +8 1012.2 929.8
21 16.08 З 1 50 км 3/3 1500 м
[Sc Ci fib]
+6.3 +5.2 93 +5 +5 1013.1 929.7
00 17.08 Ю 1 50 км 6/4 1500 м
[Cb cap Ci fib]
+12.8 +9.2 79 +13 +16 1010.8 929.5 +5.4
03 17.08 СВ 2 50 км 9/5 1500 м
[Cb cap Ac trans Ci fib]
+17.7 +9.2 57 +18 +21 1008.0 928.3
06 17.08 В 4 50 км 8/4 1500 м
[Cb cap Ci fib]
+19.3 +8.3 49 +20 +23 1005.5 926.3
09 17.08 С 2 50 км {ливн. осадки} 8/8 1500 м
[Cb cap]
+17.1 +9.5 61 +17 +18 1005.8 926.1
12 17.08 С 1 50 км {ливн. осадки} 4/4 1500 м
[Cb cap]
+13.1 +8.8 75 +13 +13 1007.6 926.7 +21.3 0.0
15 17.08 ЮЗ 1 50 км 10/8 1500 м
[Cb cap Ci fib]
+11.9 +9.0 82 +12 +12 1007.7 926.4
18 17.08 Ю 1 50 км 9/8 1500 м
[Cb cap Ci fib]
+8.0 +6.7 91 +7 +7 1008.4 926.0
21 17.08 штиль 0 50 км 9/9 1500 м
[Cb cap]
+6.5 +5.4 93 +5 +5 1009.0 926.0
00 18.08 ЮВ 1 50 км 6/6 1500 м
[Cb cap]
+12.8 +9.6 81 +13 +15 1007.1 926.1 +6.5
03 18.08 ЮЗ 3 50 км 6/6 1500 м
[Cb cap]
+19.5 +8.4 49 +21 +24 комфорт 1003.8 924.8
06 18.08 СВ 2 50 км в посл. час ливневой дождь 8/8 1500 м
[Cb cap]
+21.6 +6.9 39 +22 +24 комфорт 1002.4 924.0
09 18.08 СВ 4 50 км {ливн. осадки} 8/8 1500 м
[Cb cap]
+17.6 +9.2 58 +17 +18 1004.6 925.1
12 18.08 штиль 0 50 км {ливн. осадки} 9/9 1500 м
[Cb cap]
+13.4 +11.5 88 +13 +13 1007.8 927.0 +22.8 0.3
15 18.08 В 1 50 км {ливн. осадки} 8/6 1500 м
[Cb cap Ci fib]
+11.8 +10.6 92 +12 +12 1008.9 927.5
18 18.08 Ю 1 50 км {ливн. осадки} 8/8 1500 м
[Cb cap]
+10.8 +9.8 94 +10 +10 1009.8 928.1
21 18.08 штиль 0 50 км местами туман поземный 8/8 1500 м
[Cb cap]
+9.1 +8.2 94 +8 +8 1010.7 928.4
00 19.08 В 1 50 км 10/8 1000 м
[Cb cap Ac trans]
+11.5 +10.5 94 +11 +12 1010.8 929.2 +9.0 0.3
03 19.08 В 2 50 км 8/8 1000 м
[Cb cap Ci fib]
+16.6 +9.7 64 +17 +19 1008.5 928.5
06 19.08 Ю 1 50 км {ливн. осадки} 9/8 1000 м
[Cb cap Ci fib]
+19.8 +7.2 44 +22 +24 комфорт 1006.8 927.6

 

Местоположение метеостанции Чара (Забайкальский край, Россия): широта 56.90 долгота 118.20 высота над уровнем моря 711 м.

В архиве по умолчанию представлена погода в Чаре за последнюю неделю. Архивные данные за месяц целиком и за предыдущие месяцы, начиная с января 2011 года, Вы можете получить, выбрав интересующий диапазон дат из раскрывающегося списка и нажав кнопку "Ввод!".


*Определитесь, кто Вы:
робот инопланетянин человек

Внимание! Время в таблицах - всемирное. Для получения местного времени необходимо прибавить поправку, которая равна 9 ч.

Смотрите также архив погоды в соседних городах и на ближайших метеорологических станциях:

Погода в Удокане (Забайкальский край, Россия) (18 км)
Погода в Большой Лепринде (Забайкальский край, Россия) (46 км)
Погода в Усть-Нюкже (Амурская область, Россия) (204 км)
Погода в Таксимо (Бурятия, Россия) (216 км)
Погода в Средней Олекме (Забайкальский край, Россия) (217 км)
Погода в Перевозе (Иркутская область, Россия) (246 км)
Погода в Тяне (Якутия, Россия) (252 км)
Погода в Мамакане (Иркутская область, Россия) (272 км)
Погода в Усть-Каренге (Забайкальский край, Россия) (295 км)
Погода в Тупике (Забайкальский край, Россия) (295 км)

Пояснения к столбцам:

Ветер - указаны скорость ветра в м/с - средняя за 10 мин, порывы в срок и между сроками (в фигурных скобках) и направление, откуда дует ветер: С - северный, СВ - северо-восточный, В - восточный, ЮВ - юго-восточный, Ю - южный, ЮЗ - юго-западный, З - западный, СЗ - северо-западный.
Видимость - горизонтальная дальность видимости в метрах или километрах. При видимости от 1 до 10 км при отсутствии осадков обычно наблюдается дымка, при ухудшении видимости до 1 км и менее - туман. В сухую погоду видимость может ухудшаться дымом, пылью или мглою.
Явления - указаны атмосферные явления, наблюдавшиеся в срок или в последний час перед сроком; фигурными скобками обозначены явления, наблюдавшиеся между сроками (за 1-3 часа до срока); квадратными скобками обозначены град или гололедные отложения с указанием их диаметра в мм.
Облачность - указаны через наклонную черту общая и нижняя облачность в баллах и высота нижней границы облаков в метрах; квадратными скобками обозначены формы облаков: Ci - перистые, Cs - перисто-слоистые, Cc - перисто-кучевые, Ac - высококучевые, As - высокослоистые, Sc - слоисто-кучевые, Ns - слоисто-дождевые, Cu - кучевые, Cb - кучево-дождевые. Подробнее классификацию облаков см. в Атласе облаков (PDF).
T - Температура воздуха - температура, измеренная на высоте 2 м над землей.
Td - Температура точки росы - температура, при понижении до которой содержащийся в воздухе водяной пар достигнет насыщения.
f - Относительная влажность воздуха - влажноcть воздуха, измеренная на высоте 2 м над землей.
Te - Эффективная температура - температура, которую ощущает одетый по сезону человек в тени. Характеристика душности погоды. При расчете учитывается влияние влажности воздуха и скорости ветра на теплоощущения человека.
Tes - Эффективная температура на солнце - температура, которую ощущает человек, с поправкой на солнечный нагрев. Характеристика знойности погоды. Зависит от высоты солнца над горизонтом, облачности и скорости ветра. Ночью, в пасмурную погоду, а также при ветре 12 м/с и более поправка равна нулю.
P - Атмосферное давление - приведенное к уровню моря атмосферное давление.
Po - Атмосферное давление - измеренное на уровне метеостанции атмосферное давление.
Tmin - Минимальная температура - минимум температуры воздуха на высоте 2 м над землей.
Tmax - Максимальная температура - максимум температуры воздуха на высоте 2 м над землей.
R - Количество осадков - Количество выпавших осадков за период времени, мм. При наведении курсора мыши на число - период времени, за который выпало указанное количество осадков.
R24 - Количество осадков - Количество выпавших осадков за 24 часа, мм.
S - Снежный покров - Высота снежного покрова, см. При наведении курсора мыши на число - состояние снежного покрова и степень покрытия местности в баллах.